Location: Unspecified
(0.0000°N, 0.0000°E)
Time: 01:27:19
(UTC+00:00)

Tiros 1 despin weight - Pass Details

Date: 25 November 2019
Orbit: 594 x 642 km, 48.2° (Epoch: 10 December)

Event Time Altitude Azimuth Distance (km) Brightness Sun altitude
Rises 07:16:13 0° 209° (SSW) 2,886 ? 20.8°
Reaches altitude 10° 07:18:37 10° 203° (SSW) 1,971 ? 21.4°
Maximum altitude 07:22:58 47° 129° (SE) 801 ? 22.4°
Drops below altitude 10° 07:27:15 10° 55° (NE) 1,936 ? 23.4°
Sets 07:29:35 0° 49° (NE) 2,829 ? 23.9°
